Regional Weather Roundup
Issued by NWS

Home | Current Version | Previous Version | Text Only | Print | Product List | Glossary Off
Versions: 1 2 3 4 5 6 7 8 9 10 11 12 13 14 15 16 17 18 19 20 21 22 23 24 25 26 27 28 29 30 31 32 33 34 35 36 37 38 39 40 41 42 43 44 45 46 47 48 49 50

000
ASUS45 KBOU 181610
RWRCO

WEATHER ROUNDUP FOR COLORADO
NATIONAL WEATHER SERVICE DENVER/BOULDER CO
900 AM MST THU JAN 18 2018

NOTE: "FAIR" INDICATES FEW OR NO CLOUDS BELOW 12000 FEET WITH NO
SIGNIFICANT WEATHER AND/OR OBSTRUCTIONS TO VISIBILITY.

COZ001>005-013-030-031-181700-
...NORTHWEST COLORADO...

CITY           SKY/WX    TMP DP  RH WIND       PRES   REMARKS
CRAIG          FAIR      17  12  80 S3        30.34R
HAYDEN         FAIR     N/A N/A N/A E14       30.35R
MEEKER         FAIR      21  16  81 CALM      30.33S
RABBIT EARS PA FAIR      21  18  86 W9        30.33R WCI  11
STEAMBOAT SPGS FAIR       9   7  89 CALM      30.35R
WALDEN         FAIR      19  12  73 SE7       30.32R WCI  10
$$

COZ006>008-011-181700-
...WEST CENTRAL VALLEYS...

CITY           SKY/WX    TMP DP  RH WIND       PRES   REMARKS
GRAND JUNCTION FAIR      26  18  71 SE3       30.35F
MONTROSE       FAIR      25  14  63 CALM      30.39R
EAGLE          FAIR      12   6  77 CALM      30.45R
RIFLE          FAIR      21  16  81 CALM      30.38R
DELTA          FAIR      22  13  67 CALM      30.39R
NUCLA          FAIR      27  16  63 SE6       30.39S WCI  20
$$

COZ017>023-064>068-181700-
...SOUTHWEST COLORADO...

CITY           SKY/WX    TMP DP  RH WIND       PRES   REMARKS
DURANGO        FAIR      20  16  84 CALM      30.32R
CORTEZ         FAIR      24  18  77 CALM      30.35R
PAGOSA SPRINGS FAIR      27  14  57 CALM      30.32R
TELLURIDE      FAIR      28   3  33 SE7       30.36R WCI  21
WOLF CREEK PAS FAIR      30 -18  11 NW5       30.42R WCI  25
$$

COZ009-010-012-014-032>034-037-058>063-181700-
...CENTRAL COLORADO...

CITY           SKY/WX    TMP DP  RH WIND       PRES   REMARKS
ASPEN          FAIR      19  11  70 CALM      30.35R
BUENA VISTA    FAIR      30   8  38 S3        30.28R
COPPER MTN     NOT AVBL
BERTHOUD PASS  FAIR      19   9  63 NW18G29   30.34R WCI   4
COTTONWOOD PAS   N/A     39  -9  12 CALM      30.29R
GUNNISON       FAIR       4  -1  80 CALM      30.45R
KREMMLING      FAIR       9   3  78 CALM      30.44R
LEADVILLE      FAIR      25  -2  31 NE6       30.31R WCI  18
MONARCH PASS   FAIR      25  -2  30 W21G31    30.45R WCI  10
SALIDA         FAIR      30   9  40 CALM      30.37R
SUNLIGHT       FAIR      28   0  29 W5        30.40R WCI  23
WILKERSON PASS FAIR      32 -13  14 N21G29    30.32R WCI  20
$$

COZ069>075-181700-
...SAN LUIS VALLEY/SANGRE DE CRISTO MOUNTAINS...

CITY           SKY/WX    TMP DP  RH WIND       PRES   REMARKS
ALAMOSA        FAIR      17  -2  43 CALM      30.32R
DEL NORTE      FAIR      24   1  36 W7        30.32R WCI  16
LA VETA PASS   FAIR      27   5  39 SW25G33     N/A  WCI  11
SAGUACHE       FAIR      23   7  50 CALM      30.33R
$$

COZ035-036-038>040-181700-
...NORTHERN COLORADO FRONT RANGE...

CITY           SKY/WX    TMP DP  RH WIND       PRES   REMARKS
DENVER INTL AP PTSUNNY   43  10  26 S15       30.09S
DMNS CITY PARK NOT AVBL
AURORA         PTSUNNY   40  11  30 S12       30.11R
FRONT RANGE AP PTSUNNY   41  18  38 S9G16     30.11R
ERIE MUNI ARPT FAIR      31  23  72 CALM      30.16R
BOULDER MUN AP FAIR      32  19  59 CALM      30.10R
CENTENNIAL     PTSUNNY   37  10  32 E5        30.12R
BROOMFIELD     PTSUNNY   37  12  35 CALM      30.10R
FORT COLLINS   FAIR      26  18  71 CALM      30.10S
LONGMONT       FAIR      28  20  70 CALM      30.12R
$$

COZ041-046-047-076>085-087-088-181700-
...PIKES PEAK/PALMER DIVIDE AND SOUTHERN FOOTHILLS...

CITY           SKY/WX    TMP DP  RH WIND       PRES   REMARKS
COLO. SPRINGS  FAIR      43  12  28 N7        30.17R
A. F. ACADEMY  FAIR      35   8  32 N6        30.17R WCI  30
SCHRIEVER AFB  FAIR      45   6  20 CALM      30.17R
CHEYENNE MTN   FAIR      45   3  17 CALM      30.13R
ELLICOTT         N/A      1   1 100 NE3       30.15R
FALCON         FAIR      43  11  26 W3        30.18R
FORT CARSON    FAIR      37  10  33 N10       30.15R
LIMON          FAIR      30  20  66 N3        30.14R
MONUMENT HILL  FAIR      37  12  35 S7        30.18R
CANON CITY     FAIR      43  10  26 W21G32    30.16R
WALSENBURG     FAIR      50   7  17 W22       30.17R
TRINIDAD       FAIR      35   6  29 W9        30.17R WCI  28
$$

COZ042>045-048>051-090-091-181700-
...NORTHEAST COLORADO...

CITY           SKY/WX    TMP DP  RH WIND       PRES   REMARKS
GREELEY ARPT   FAIR      22  14  71 SW3       30.11F
AKRON          FAIR      34  15  46 W14       30.09R WCI  25
BURLINGTON     FAIR      43  13  29 W13       30.10R
WRAY           FAIR      32  19  59 MISG      30.09R
YUMA           FAIR      34  18  51 W13       30.08R WCI  25
STERLING       FAIR      23  18  80 SW12      30.08S WCI  12
HOLYOKE        FAIR      34  23  64 W10       30.07R WCI  26
FORT MORGAN    FAIR      24  15  69 SW8       30.10S WCI  15
$$

COZ086-089-092>099-181700-
...SOUTHEAST COLORADO...

CITY           SKY/WX    TMP DP  RH WIND       PRES   REMARKS
PUEBLO         FAIR      29  13  51 SW6       30.16R WCI  23
LA JUNTA       FAIR      30  11  45 W8        30.16R WCI  22
LAMAR          FAIR      28  12  51 W9        30.15R WCI  19
SPRINGFIELD      N/A     45  13  27 CALM      30.13S
$$



USA.gov is the U.S. government's official web portal to all federal, state and local government web resources and services.